DW8913 Weather Reports


time (UTC)temp
C
wind
direction
speed
KPH
gust
KPH
rain 1hr
cm
rain 24hr
cm
rain mn
cm
humidity
%
barometer
mb
20260506181538 16 63 3.2 14.5 0.00 0.00 0.00 83 1009.3
20260506180010 16 146 4.8 16.1 0.00 0.00 0.00 83 1009.3
20260506174545 16 155 1.6 14.5 0.00 0.00 0.00 84 1009.5
20260506173012 16 204 3.2 12.9 0.00 0.00 0.00 83 1009.4
20260506171554 16 128 6.4 14.5 0.00 0.00 0.00 81 1009.8
20260506170018 16 124 4.8 14.5 0.00 0.00 0.00 81 1010.0
20260506164603 16 94 6.4 16.1 0.00 0.00 0.00 81 1010.5
20260506163041 16 75 4.8 12.9 0.00 0.00 0.00 81 1010.8
20260506161514 16 88 4.8 9.7 0.00 0.00 0.00 81 1010.7
20260506160023 16 58 3.2 14.5 0.00 0.00 0.00 81 1010.9
20260506154522 16 196 4.8 17.7 0.00 0.00 0.00 81 1011.1
20260506153021 17 98 4.8 17.7 0.00 0.00 0.00 78 1011.3
20260506151502 17 70 4.8 16.1 0.00 0.00 0.00 77 1011.1
20260506150050 18 91 4.8 14.5 0.00 0.00 0.00 76 1011.1
20260506144519 18 98 4.8 17.7 0.00 0.00 0.00 77 1011.3
20260506143109 18 162 6.4 16.1 0.00 0.00 0.00 76 1011.4
20260506141537 17 56 3.2 12.9 0.00 0.00 0.00 78 1011.4
20260506140009 17 63 4.8 14.5 0.00 0.00 0.00 77 1011.3
20260506134550 17 196 4.8 14.5 0.00 0.00 0.00 79 1011.5
20260506133024 17 160 4.8 12.9 0.00 0.00 0.00 79 1011.6
20260506131603 17 109 3.2 14.5 0.00 0.00 0.00 79 1011.6
20260506130034 17 112 4.8 16.1 0.00 0.00 0.00 79 1011.9
20260506124609 17 152 6.4 19.3 0.00 0.00 0.00 78 1011.5
20260506123035 16 86 4.8 16.1 0.00 0.00 0.00 81 1011.6
20260506121513 15 130 6.4 14.5 0.00 0.00 0.00 85 1011.5
20260506120048 15 59 3.2 19.3 0.00 0.00 0.00 85 1011.3
20260506114517 15 15 3.2 11.3 0.00 0.00 0.00 88 1011.4
20260506113059 15 114 4.8 12.9 0.00 0.00 0.00 88 1011.4
20260506111528 14 163 3.2 11.3 0.00 0.00 0.00 89 1011.3
20260506110108 14 79 3.2 14.5 0.00 0.00 0.00 90 1011.6
20260506104539 14 176 6.4 16.1 0.00 0.00 0.00 90 1011.6
20260506103010 13 55 4.8 12.9 0.00 0.00 0.00 90 1011.5
20260506101538 13 141 3.2 12.9 0.00 0.00 0.00 90 1011.3
20260506100013 13 69 4.8 17.7 0.00 0.00 0.00 90 1011.3
20260506094604 13 111 4.8 12.9 0.00 0.00 0.00 90 1011.3
20260506093023 13 117 3.2 14.5 0.00 0.00 0.00 90 1011.3
20260506091608 13 143 4.8 14.5 0.00 0.00 0.00 90 1011.4
20260506090046 13 98 4.8 22.5 0.00 0.00 0.00 90 1011.5
20260506084502 13 127 4.8 16.1 0.00 0.00 0.00 90 1011.7
20260506083043 13 77 4.8 14.5 0.00 0.00 0.00 90 1011.8
20260506081512 13 152 4.8 14.5 0.00 0.00 0.00 89 1011.7
20260506073106 14 134 4.8 16.1 0.00 0.00 0.00 89 1011.6
20260506071539 14 87 6.4 16.1 0.00 0.00 0.00 88 1011.6
20260506061601 14 120 6.4 14.5 0.00 0.00 0.00 87 1011.7
20260506044521 15 73 6.4 19.3 0.00 0.00 0.00 83 1012.4
20260506043104 15 16 4.8 16.1 0.00 0.00 0.00 83 1012.4
20260506041526 15 68 4.8 17.7 0.00 0.00 0.00 83 1012.3
20260506040108 15 141 8.0 17.7 0.00 0.00 0.00 83 1012.3
20260506034541 15 143 6.4 19.3 0.00 0.00 0.00 82 1012.3
20260506033006 15 169 9.7 19.3 0.00 0.00 0.00 82 1012.5
20260506031551 15 151 8.0 17.7 0.00 0.00 0.00 82 1012.3
20260506030020 15 113 6.4 17.7 0.00 0.00 0.00 81 1012.4
20260506024600 15 74 8.0 20.9 0.00 0.00 0.00 81 1012.6
20260506023026 15 51 4.8 16.1 0.00 0.00 0.00 80 1012.5
20260506021609 15 64 8.0 17.7 0.00 0.00 0.00 80 1012.6
20260506020039 15 179 6.4 19.3 0.00 0.00 0.00 80 1012.6
20260506014507 15 87 8.0 19.3 0.00 0.00 0.00 80 1012.3
20260506013054 15 72 4.8 19.3 0.00 0.00 0.00 80 1012.3
20260506011508 15 51 8.0 19.3 0.00 0.00 0.00 80 1012.2
20260506010037 15 74 8.0 16.1 0.00 0.00 0.00 81 1012.0
20260506004506 15 56 6.4 17.7 0.00 0.00 0.00 81 1011.8
20260506003045 15 172 4.8 14.5 0.00 0.00 0.00 81 1011.8
20260506001514 15 11 6.4 17.7 0.00 0.00 0.00 81 1011.8
20260506000054 15 65 4.8 19.3 0.00 0.00 0.00 80 1011.7
20260505234522 15 98 6.4 19.3 0.00 0.00 0.00 79 1011.6
20260505233100 16 122 8.0 20.9 0.00 0.00 0.00 77 1011.5
20260505231534 16 68 8.0 17.7 0.00 0.00 0.00 76 1011.6
20260505230003 16 160 6.4 22.5 0.00 0.00 0.00 74 1011.3
20260505224546 17 76 6.4 17.7 0.00 0.00 0.00 73 1011.3
20260505223019 17 156 8.0 24.1 0.00 0.00 0.00 73 1011.2
20260505221600 17 91 8.0 19.3 0.00 0.00 0.00 72 1011.4
20260505220030 17 195 6.4 19.3 0.00 0.00 0.00 72 1011.2
20260505214502 17 79 8.0 19.3 0.00 0.00 0.00 72 1010.9
20260505213043 17 117 6.4 16.1 0.00 0.00 0.00 71 1011.1
20260505211512 17 68 8.0 17.7 0.00 0.00 0.00 70 1010.9
20260505210055 18 37 8.0 19.3 0.00 0.00 0.00 69 1010.8
20260505204523 18 75 8.0 24.1 0.00 0.00 0.00 69 1010.7
20260505203108 18 81 8.0 22.5 0.00 0.00 0.00 69 1010.7
20260505201543 18 75 9.7 19.3 0.00 0.00 0.00 68 1010.9
20260505200016 18 106 8.0 22.5 0.00 0.00 0.00 68 1011.4
20260505194558 19 91 4.8 19.3 0.00 0.00 0.00 66 1011.3
20260505193027 19 83 6.4 20.9 0.00 0.00 0.00 66 1011.6
20260505191612 19 136 8.0 16.1 0.00 0.00 0.00 65 1012.0
20260505190046 20 112 6.4 17.7 0.00 0.00 0.00 65 1011.8
20260505184513 20 102 4.8 12.9 0.00 0.00 0.00 65 1011.8
20260505183104 20 139 4.8 11.3 0.00 0.00 0.00 65 1011.8